EW7869 Weather Reports


Display with metric or nautical units.
time (UTC)temp
F
wind
direction
speed
MPH
gust
MPH
rain 1hr
in
rain 24hr
in
rain mn
in
humidity
%
barometer
mb
20200806141927 72 11 1.0 4.0 0.00 0.00 0.00 79 1016.9
20200806141428 72 297 1.0 4.0 0.00 0.00 0.00 80 1016.8
20200806140927 72 5 1.0 4.0 0.00 0.00 0.00 79 1016.9
20200806140428 72 19 1.0 2.0 0.00 0.00 0.00 80 1016.9
20200806135928 72 70 1.0 4.0 0.00 0.00 0.00 80 1016.9
20200806135426 71 2 1.0 4.0 0.00 0.00 0.00 80 1016.9
20200806134927 71 309 0.0 4.0 0.00 0.00 0.00 80 1016.9
20200806134424 71 37 1.0 3.0 0.00 0.00 0.00 82 1016.8
20200806133922 70 319 2.0 4.0 0.00 0.00 0.00 84 1016.7
20200806133424 70 0 3.0 5.0 0.00 0.00 0.00 83 1016.6
20200806132922 70 18 3.0 6.0 0.00 0.00 0.00 82 1016.6
20200806132423 70 6 2.0 6.0 0.00 0.00 0.00 82 1016.6
20200806131924 70 16 2.0 6.0 0.00 0.00 0.00 83 1016.6
20200806131424 70 34 2.0 4.0 0.00 0.00 0.00 84 1016.6
20200806130923 69 324 1.0 4.0 0.00 0.00 0.00 85 1016.7
20200806130423 69 4 1.0 4.0 0.00 0.00 0.00 85 1016.6
20200806125922 68 44 2.0 5.0 0.00 0.00 0.00 86 1016.6
20200806125424 68 23 2.0 5.0 0.00 0.00 0.00 86 1016.7
20200806124924 68 311 2.0 4.0 0.00 0.00 0.00 87 1016.6
20200806124422 67 333 2.0 5.0 0.00 0.00 0.00 87 1016.6
20200806123923 67 44 2.0 5.0 0.00 0.00 0.00 87 1016.6
20200806123423 67 354 1.0 4.0 0.00 0.00 0.00 87 1016.5
20200806122923 67 336 1.0 4.0 0.00 0.00 0.00 88 1016.4
20200806122421 67 248 0.0 3.0 0.00 0.00 0.00 88 1016.4
20200806121919 67 179 0.0 2.0 0.00 0.00 0.00 88 1016.4
20200806121418 67 247 0.0 0.0 0.00 0.00 0.00 90 1016.4
20200806120918 66 232 0.0 0.0 0.00 0.00 0.00 91 1016.4
20200806120415 66 232 0.0 0.0 0.00 0.00 0.00 92 1016.5
20200806115915 65 232 0.0 0.0 0.00 0.00 0.00 93 1016.3
20200806115410 65 232 0.0 0.0 0.00 0.00 0.00 94 1016.3
20200806114908 64 232 0.0 0.0 0.00 0.00 0.00 94 1016.1
20200806114406 64 232 0.0 0.0 0.00 0.00 0.00 95 1016.1
20200806113905 63 232 0.0 0.0 0.00 0.00 0.00 95 1016.2
20200806113403 63 232 0.0 0.0 0.00 0.00 0.00 95 1016.2
20200806112856 63 232 0.0 0.0 0.00 0.00 0.00 95 1016.2
20200806112358 63 240 0.0 0.0 0.00 0.00 0.00 95 1016.1
20200806111856 63 240 0.0 0.0 0.00 0.00 0.00 95 1016.1
20200806111353 63 240 0.0 0.0 0.00 0.00 0.00 95 1016.0
20200806110852 63 240 0.0 0.0 0.00 0.00 0.00 95 1016.0
20200806110354 63 240 0.0 0.0 0.00 0.00 0.00 95 1016.0
20200806105844 63 240 0.0 0.0 0.00 0.00 0.00 95 1016.0
20200806105343 63 243 0.0 0.0 0.00 0.00 0.00 95 1016.0
20200806104841 63 243 0.0 0.0 0.00 0.00 0.00 95 1015.9
20200806104341 63 226 0.0 0.0 0.00 0.00 0.00 95 1015.9
20200806103841 63 226 0.0 0.0 0.00 0.00 0.00 95 1015.9
20200806103336 63 226 0.0 0.0 0.00 0.00 0.00 95 1015.9
20200806102835 63 226 0.0 0.0 0.00 0.00 0.00 95 1015.8
20200806102337 63 226 0.0 0.0 0.00 0.00 0.00 95 1015.8
20200806101837 63 226 0.0 0.0 0.00 0.00 0.00 95 1015.6
20200806101335 63 226 0.0 0.0 0.00 0.00 0.00 95 1015.6
20200806100832 63 225 0.0 0.0 0.00 0.00 0.00 95 1015.7
20200806100330 63 225 0.0 0.0 0.00 0.00 0.00 95 1015.6
20200806095829 63 225 0.0 0.0 0.00 0.00 0.00 95 1015.6
20200806095331 63 238 0.0 0.0 0.00 0.00 0.00 95 1015.6
20200806094829 63 238 0.0 0.0 0.00 0.00 0.00 95 1015.6
20200806094328 63 238 0.0 0.0 0.00 0.00 0.00 95 1015.5
20200806093828 63 238 0.0 0.0 0.00 0.00 0.00 95 1015.5
20200806093323 63 243 0.0 0.0 0.00 0.00 0.00 95 1015.4
20200806092820 63 238 0.0 0.0 0.00 0.00 0.00 95 1015.6
20200806092318 63 245 0.0 0.0 0.00 0.00 0.00 94 1015.5
20200806091315 63 309 0.0 0.0 0.00 0.00 0.00 94 1015.5
20200806090813 64 309 0.0 0.0 0.00 0.00 0.00 94 1015.5
20200806090313 64 309 0.0 0.0 0.00 0.00 0.00 94 1015.4
20200806085811 64 290 0.0 0.0 0.00 0.00 0.00 94 1015.4
20200806085309 64 290 0.0 0.0 0.00 0.00 0.00 94 1015.3
20200806084807 64 294 0.0 0.0 0.00 0.00 0.00 94 1015.3
20200806084308 64 293 0.0 0.0 0.00 0.00 0.00 94 1015.3
20200806083802 64 303 0.0 0.0 0.00 0.00 0.00 94 1015.3
20200806083301 64 303 0.0 0.0 0.00 0.00 0.00 94 1015.3
20200806082758 64 303 0.0 0.0 0.00 0.00 0.00 93 1015.2
20200806082255 64 303 0.0 0.0 0.00 0.00 0.00 93 1015.3
20200806081755 64 303 0.0 0.0 0.00 0.00 0.00 93 1015.1
20200806081251 64 304 0.0 0.0 0.00 0.00 0.00 94 1015.2
20200806080751 64 303 0.0 0.0 0.00 0.00 0.00 94 1015.3
20200806080251 64 304 0.0 0.0 0.00 0.00 0.00 94 1015.2
20200806075751 64 249 0.0 0.0 0.00 0.00 0.00 94 1015.2
20200806075250 64 238 0.0 0.0 0.00 0.00 0.00 94 1015.2
20200806074750 64 331 0.0 0.0 0.00 0.00 0.00 94 1015.2
20200806074242 64 331 0.0 0.0 0.00 0.00 0.00 93 1015.2
20200806073744 65 332 0.0 0.0 0.00 0.00 0.00 93 1015.2
20200806073240 65 331 0.0 0.0 0.00 0.00 0.00 93 1015.3
20200806072738 65 331 0.0 0.0 0.00 0.00 0.00 93 1015.3
20200806072238 65 331 0.0 0.0 0.00 0.00 0.00 93 1015.2
20200806071732 65 331 0.0 0.0 0.00 0.00 0.00 93 1015.3
20200806071232 65 331 0.0 0.0 0.00 0.00 0.00 93 1015.2
20200806070734 65 331 0.0 0.0 0.00 0.00 0.00 92 1015.3
20200806070233 65 331 0.0 0.0 0.00 0.00 0.00 92 1015.4
20200806065732 65 331 0.0 0.0 0.00 0.00 0.00 92 1015.5
20200806065231 66 331 0.0 0.0 0.00 0.00 0.00 91 1015.5
20200806064727 66 331 0.0 0.0 0.00 0.00 0.00 91 1015.5
20200806064228 66 331 0.0 0.0 0.00 0.00 0.00 91 1015.5
20200806063727 66 332 0.0 0.0 0.00 0.00 0.00 91 1015.6
20200806063229 66 248 0.0 0.0 0.00 0.00 0.00 91 1015.6
20200806062725 66 248 0.0 0.0 0.00 0.00 0.00 90 1015.6
20200806062226 66 248 0.0 0.0 0.00 0.00 0.00 90 1015.6
20200806061718 66 253 0.0 0.0 0.00 0.00 0.00 90 1015.7
20200806061217 66 351 0.0 0.0 0.00 0.00 0.00 91 1015.8
20200806060716 66 352 0.0 0.0 0.00 0.00 0.00 91 1015.8
20200806060215 66 244 0.0 0.0 0.00 0.00 0.00 91 1015.8
20200806055713 66 244 0.0 0.0 0.00 0.00 0.00 91 1015.9
20200806055211 66 244 0.0 0.0 0.00 0.00 0.00 91 1016.0
20200806054709 66 244 0.0 0.0 0.00 0.00 0.00 91 1016.0
20200806054207 66 244 0.0 0.0 0.00 0.00 0.00 91 1016.0
20200806053706 66 244 0.0 0.0 0.00 0.00 0.00 91 1016.0
20200806053203 66 244 0.0 0.0 0.00 0.00 0.00 91 1016.0
20200806052703 66 252 0.0 1.0 0.00 0.00 0.00 90 1016.0
20200806052156 66 252 0.0 1.0 0.00 0.00 0.00 91 1016.0
20200806051656 66 343 0.0 1.0 0.00 0.00 0.00 91 1016.0
20200806051154 66 343 0.0 1.0 0.00 0.00 0.00 91 1015.9
20200806050651 66 356 0.0 0.0 0.00 0.00 0.00 92 1016.0
20200806050152 66 356 0.0 0.0 0.00 0.00 0.00 91 1015.9
20200806045646 66 356 0.0 0.0 0.00 0.00 0.00 91 1015.9
20200806045145 66 356 0.0 0.0 0.00 0.00 0.00 91 1015.9
20200806044645 66 356 0.0 1.0 0.00 0.00 0.00 91 1015.9
20200806044147 66 356 0.0 1.0 0.00 0.00 0.00 91 1015.9
20200806043646 66 356 0.0 0.0 0.00 0.00 0.00 91 1015.8
20200806043147 66 356 0.0 0.0 0.00 0.00 0.00 91 1015.8
20200806042642 67 356 0.0 0.0 0.00 0.00 0.00 90 1015.9
20200806042141 67 356 0.0 0.0 0.00 0.00 0.00 89 1015.9
20200806041638 67 356 0.0 0.0 0.00 0.00 0.00 89 1015.9
20200806041140 67 356 0.0 0.0 0.00 0.00 0.00 88 1016.0
20200806040641 67 356 0.0 0.0 0.00 0.00 0.00 88 1015.9
20200806040208 68 356 0.0 0.0 0.00 0.00 0.00 87 1015.8
20200806035635 68 356 0.0 0.0 0.00 0.00 0.00 87 1015.8
20200806035135 68 356 0.0 0.0 0.00 0.00 0.00 87 1015.8
20200806034638 69 356 0.0 0.0 0.00 0.00 0.00 86 1015.9
20200806034135 69 356 0.0 2.0 0.00 0.00 0.00 84 1015.8
20200806033633 69 356 0.0 2.0 0.00 0.00 0.00 84 1015.8
20200806033133 69 352 0.0 1.0 0.00 0.00 0.00 84 1015.7
20200806032632 69 26 0.0 0.0 0.00 0.00 0.00 83 1015.7
20200806032125 69 27 0.0 2.0 0.00 0.00 0.00 83 1015.7
20200806031624 69 319 0.0 2.0 0.00 0.00 0.00 84 1015.9
20200806031123 69 313 0.0 1.0 0.00 0.00 0.00 84 1016.0
20200806030621 69 314 0.0 1.0 0.00 0.00 0.00 84 1015.9
20200806030114 69 15 0.0 0.0 0.00 0.00 0.00 85 1016.0
20200806025613 70 15 0.0 0.0 0.00 0.00 0.00 85 1015.9
20200806025112 70 15 0.0 0.0 0.00 0.00 0.00 84 1016.0
20200806024610 71 15 0.0 1.0 0.00 0.00 0.00 82 1015.8
20200806024109 71 15 0.0 1.0 0.00 0.00 0.00 80 1015.8
20200806023603 71 15 0.0 1.0 0.00 0.00 0.00 79 1015.7
20200806023102 71 15 0.0 3.0 0.00 0.00 0.00 78 1015.7
20200806022559 71 15 1.0 3.0 0.00 0.00 0.00 78 1015.6
20200806022058 72 11 2.0 6.0 0.00 0.00 0.00 78 1015.5
20200806021557 72 8 1.0 6.0 0.00 0.00 0.00 77 1015.4
20200806021055 72 19 1.0 4.0 0.00 0.00 0.00 77 1015.3
20200806020556 72 308 2.0 4.0 0.00 0.00 0.00 77 1015.3
20200806020055 72 356 2.0 4.0 0.00 0.00 0.00 77 1015.3
20200806015554 72 17 1.0 5.0 0.00 0.00 0.00 77 1015.4
20200806015057 72 18 0.0 5.0 0.00 0.00 0.00 78 1015.3
20200806014557 72 28 0.0 3.0 0.00 0.00 0.00 78 1015.3
20200806014057 73 15 0.0 0.0 0.00 0.00 0.00 78 1015.2
20200806013548 73 357 0.0 0.0 0.00 0.00 0.00 76 1015.1
20200806013047 73 37 0.0 1.0 0.00 0.00 0.00 76 1015.2
20200806012546 73 25 0.0 2.0 0.00 0.00 0.00 75 1015.1
20200806012043 73 10 0.0 1.0 0.00 0.00 0.00 76 1015.1
20200806011545 73 28 0.0 1.0 0.00 0.00 0.00 76 1015.2
20200806011042 74 97 0.0 1.0 0.00 0.00 0.00 77 1015.2
20200806010540 74 96 0.0 3.0 0.00 0.00 0.00 75 1015.1
20200806010043 74 32 0.0 3.0 0.00 0.00 0.00 73 1015.0
20200806005539 75 8 0.0 5.0 0.00 0.00 0.00 72 1015.0
20200806005037 75 0 0.0 5.0 0.00 0.00 0.00 72 1015.0
20200806004538 75 28 0.0 2.0 0.00 0.00 0.00 73 1015.0
20200806004032 76 338 0.0 3.0 0.00 0.00 0.00 73 1014.9
20200806003528 76 15 0.0 3.0 0.00 0.00 0.00 70 1014.9
20200806003029 76 16 0.0 3.0 0.00 0.00 0.00 69 1014.8
20200806002529 77 6 0.0 3.0 0.00 0.00 0.00 67 1014.8
20200806002028 78 31 0.0 3.0 0.00 0.00 0.00 67 1014.8
20200806001527 78 352 1.0 3.0 0.00 0.00 0.00 66 1014.8
20200806001031 78 3 1.0 4.0 0.00 0.00 0.00 66 1014.9
20200806000523 78 354 1.0 4.0 0.00 0.00 0.00 65 1014.8
20200806000020 78 34 2.0 5.0 0.00 0.00 0.00 65 1014.8
20200805235521 78 353 2.0 5.0 0.00 0.00 0.00 64 1014.8
20200805235019 79 341 1.0 4.0 0.00 0.00 0.00 66 1014.8
20200805234521 79 8 2.0 5.0 0.00 0.00 0.00 66 1014.8
20200805234015 79 24 2.0 6.0 0.00 0.00 0.00 65 1014.8
20200805233511 79 342 2.0 6.0 0.00 0.00 0.00 64 1014.8
20200805233010 79 15 2.0 5.0 0.00 0.00 0.00 64 1014.8
20200805232509 80 8 2.0 5.0 0.00 0.00 0.00 65 1014.7
20200805232010 80 347 2.0 5.0 0.00 0.00 0.00 64 1014.7
20200805231510 80 22 3.0 6.0 0.00 0.00 0.00 64 1014.7
20200805231012 80 340 2.0 6.0 0.00 0.00 0.00 64 1014.7
20200805230506 80 5 2.0 7.0 0.00 0.00 0.00 63 1014.7
20200805230005 80 27 2.0 7.0 0.00 0.00 0.00 62 1014.8
20200805225505 80 357 2.0 7.0 0.00 0.00 0.00 63 1014.7
20200805225006 80 0 3.0 7.0 0.00 0.00 0.00 62 1014.8
20200805224505 80 10 3.0 10.0 0.00 0.00 0.00 64 1014.8
20200805224008 80 20 3.0 10.0 0.00 0.00 0.00 61 1014.9
20200805223502 80 1 3.0 9.0 0.00 0.00 0.00 63 1014.9
20200805223001 80 59 3.0 9.0 0.00 0.00 0.00 61 1015.0
20200805222502 81 351 3.0 9.0 0.00 0.00 0.00 63 1015.0
20200805222002 81 356 4.0 9.0 0.00 0.00 0.00 61 1015.0
20200805221502 81 26 2.0 6.0 0.00 0.00 0.00 62 1015.1
20200805221004 82 32 2.0 5.0 0.00 0.00 0.00 62 1015.1
20200805220457 81 28 3.0 6.0 0.00 0.00 0.00 63 1015.1
20200805215957 81 42 3.0 6.0 0.00 0.00 0.00 59 1015.2
20200805215457 81 321 2.0 6.0 0.00 0.00 0.00 61 1015.2
20200805214957 81 347 2.0 7.0 0.00 0.00 0.00 62 1015.2
20200805214457 81 37 3.0 7.0 0.00 0.00 0.00 64 1015.3
20200805213959 81 319 3.0 7.0 0.00 0.00 0.00 62 1015.4
20200805213452 81 245 3.0 7.0 0.00 0.00 0.00 64 1015.4
20200805212950 81 22 2.0 7.0 0.00 0.00 0.00 63 1015.4
20200805212449 81 39 2.0 9.0 0.00 0.00 0.00 62 1015.5
20200805211948 81 6 3.0 9.0 0.00 0.00 0.00 61 1015.6
20200805211447 81 283 3.0 8.0 0.00 0.00 0.00 64 1015.6
20200805210949 82 330 2.0 7.0 0.00 0.00 0.00 62 1015.7
20200805210449 83 303 1.0 6.0 0.00 0.00 0.00 62 1015.7
20200805205950 82 281 2.0 5.0 0.00 0.00 0.00 63 1015.7
20200805205446 82 8 1.0 5.0 0.00 0.00 0.00 60 1015.7
20200805204947 82 129 2.0 8.0 0.00 0.00 0.00 61 1015.7
20200805204447 81 320 2.0 8.0 0.00 0.00 0.00 63 1015.7
20200805203946 81 277 2.0 5.0 0.00 0.00 0.00 63 1015.8
20200805203447 81 32 2.0 5.0 0.00 0.00 0.00 62 1015.8
20200805202946 80 12 3.0 9.0 0.00 0.00 0.00 64 1015.9
20200805202446 80 310 4.0 9.0 0.00 0.00 0.00 61 1015.9
20200805201941 81 345 3.0 9.0 0.00 0.00 0.00 59 1015.9
20200805201444 82 32 3.0 9.0 0.00 0.00 0.00 61 1015.9
20200805200941 81 139 3.0 7.0 0.00 0.00 0.00 60 1015.9
20200805200441 82 25 3.0 6.0 0.00 0.00 0.00 59 1016.0
20200805195944 81 29 2.0 6.0 0.00 0.00 0.00 61 1016.0
20200805195442 80 184 3.0 6.0 0.00 0.00 0.00 63 1016.0
20200805194944 80 30 2.0 6.0 0.00 0.00 0.00 63 1016.1
20200805194438 81 11 1.0 5.0 0.00 0.00 0.00 61 1016.1
20200805193938 81 56 1.0 5.0 0.00 0.00 0.00 62 1016.0
20200805193438 81 85 2.0 5.0 0.00 0.00 0.00 61 1016.1
20200805192939 81 322 2.0 6.0 0.00 0.00 0.00 62 1016.3
20200805192436 80 29 1.0 6.0 0.00 0.00 0.00 62 1016.3
20200805191936 80 34 1.0 6.0 0.00 0.00 0.00 63 1016.4
20200805191429 80 45 2.0 6.0 0.00 0.00 0.00 61 1016.4
20200805190927 80 71 2.0 5.0 0.00 0.00 0.00 61 1016.4
20200805190430 81 290 3.0 7.0 0.00 0.00 0.00 61 1016.5
20200805185925 81 20 3.0 7.0 0.00 0.00 0.00 61 1016.5
20200805185428 81 18 2.0 7.0 0.00 0.00 0.00 62 1016.7
20200805184926 82 13 2.0 7.0 0.00 0.00 0.00 62 1016.7
20200805184420 80 337 2.0 6.0 0.00 0.00 0.00 62 1016.7
20200805183920 80 44 2.0 6.0 0.00 0.00 0.00 62 1016.8
20200805183420 80 308 3.0 7.0 0.00 0.00 0.00 63 1016.9
20200805182920 81 340 3.0 7.0 0.00 0.00 0.00 62 1016.9
20200805182421 82 336 2.0 6.0 0.00 0.00 0.00 61 1016.9
20200805181919 81 236 1.0 6.0 0.00 0.00 0.00 60 1017.0
20200805181415 81 46 2.0 6.0 0.00 0.00 0.00 62 1017.0
20200805180912 80 336 3.0 6.0 0.00 0.00 0.00 63 1017.0
20200805180411 80 350 3.0 6.0 0.00 0.00 0.00 61 1016.9
20200805175908 80 19 3.0 7.0 0.00 0.00 0.00 63 1016.9
20200805175408 80 18 3.0 7.0 0.00 0.00 0.00 64 1016.9
20200805174902 80 14 3.0 8.0 0.00 0.00 0.00 66 1016.9
20200805174401 80 340 3.0 8.0 0.00 0.00 0.00 64 1016.9
20200805173903 80 319 2.0 8.0 0.00 0.00 0.00 64 1017.0
20200805173402 80 343 2.0 8.0 0.00 0.00 0.00 67 1017.0
20200805172903 80 326 3.0 9.0 0.00 0.00 0.00 67 1017.0
20200805172403 79 326 3.0 9.0 0.00 0.00 0.00 65 1017.0
20200805171857 79 83 3.0 8.0 0.00 0.00 0.00 67 1017.0
20200805171357 79 76 3.0 8.0 0.00 0.00 0.00 65 1017.0
20200805170856 79 62 3.0 9.0 0.00 0.00 0.00 66 1017.0
20200805170357 79 14 3.0 9.0 0.00 0.00 0.00 64 1017.1
20200805165856 79 48 2.0 6.0 0.00 0.00 0.00 66 1017.1
20200805165357 78 56 3.0 7.0 0.00 0.00 0.00 69 1017.1
20200805164853 78 316 3.0 7.0 0.00 0.00 0.00 67 1017.2
20200805164354 77 34 3.0 7.0 0.00 0.00 0.00 70 1017.1
20200805163853 77 33 3.0 8.0 0.00 0.00 0.00 70 1017.1
20200805163352 77 61 3.0 8.0 0.00 0.00 0.00 69 1017.1
20200805162850 77 32 3.0 8.0 0.00 0.00 0.00 69 1017.2
20200805162349 77 18 3.0 8.0 0.00 0.00 0.00 71 1017.2
20200805161843 77 40 3.0 8.0 0.00 0.00 0.00 71 1017.3
20200805161341 76 306 3.0 8.0 0.00 0.00 0.00 71 1017.3
20200805160841 76 10 2.0 7.0 0.00 0.00 0.00 73 1017.3
20200805160343 76 3 1.0 6.0 0.00 0.00 0.00 71 1017.4
20200805155843 76 6 2.0 8.0 0.00 0.00 0.00 70 1017.4
20200805155342 76 335 2.0 8.0 0.00 0.00 0.00 71 1017.5
20200805154835 76 78 3.0 7.0 0.00 0.00 0.00 73 1017.5
20200805154335 75 25 3.0 7.0 0.00 0.00 0.00 73 1017.5
20200805153836 75 359 2.0 6.0 0.00 0.00 0.00 75 1017.4
20200805153336 75 340 2.0 7.0 0.00 0.00 0.00 74 1017.5
20200805152837 75 62 2.0 8.0 0.00 0.00 0.00 75 1017.4
20200805152338 75 82 2.0 8.0 0.00 0.00 0.00 74 1017.3
20200805151832 75 55 2.0 8.0 0.00 0.00 0.00 75 1017.3
20200805151331 74 359 3.0 6.0 0.00 0.00 0.00 76 1017.2
20200805150832 74 48 3.0 6.0 0.00 0.00 0.00 75 1017.3
20200805150332 74 80 2.0 7.0 0.00 0.00 0.00 76 1017.5
20200805145830 74 167 2.0 7.0 0.00 0.00 0.00 77 1017.5
20200805145329 73 332 1.0 6.0 0.00 0.00 0.00 78 1017.4
20200805144828 73 49 2.0 6.0 0.00 0.00 0.00 78 1017.2
20200805144327 72 301 2.0 6.0 0.00 0.00 0.00 78 1017.1
20200805143827 73 38 2.0 4.0 0.00 0.00 0.00 78 1017.0
20200805143326 73 339 2.0 5.0 0.00 0.00 0.00 79 1017.1
20200805142827 72 37 1.0 5.0 0.00 0.00 0.00 79 1017.1
20200805142328 72 340 0.0 4.0 0.00 0.00 0.00 79 1017.1